ARIANE 5 DEB (SYLDA), 49057

Orbit data source: Space-Track

ARIANE 5 DEB (SYLDA), 49057 is space debris in HEO originally from a launch on Fri, 30 Jul 2021 UTC launched from the French Guiana (FRGUI). Debris objects in space refer to the collection of defunct objects orbiting the Earth. Examples of debris include non-operational satellites, rocket bodies, and fragments generated from explosions, collisions, or faulty payload assembly.

Loading next visibility...
Identifier
49057, 2021-069C
Orbit
HEO
Country
Flag of FRFR
Related business
Manufacturer
ADS/Bremen
Mission
Spacecraft
Bus & Motor
SYLDA 5, Unknown motor
Mass
440 kg wet, 440 kg dry
Launch date (UTC)
2021-07-30 (5 years ago)
Launch vehicle
Unknown
Launch site
French Guiana (FRGUI)
Object type
Payload
Rocket body
Debris
Shape & HBR
Cyl, 2.8 m
Radar Cross Section
27.391 m², Large (>1 m²)

Expand to show TLE details & history
Last TLE update: 2 days ago

TLE from 2 days ago
0 ARIANE 5 DEB (SYLDA)
1 49057U 21069C   26171.17492069  .00018720  00000-0  57046-2 0  9990
2 49057   3.1054 208.9551 6385607 309.8680   9.4655  3.46350631 50903
Epoch: 2026-06-20T04:11Z
TLE epoch observation values (Epoch: 2026-06-20T04:11:53.147Z)
Latitude
0.00005°
Longitude
-122.1301°
Altitude
1,399.154 km
Speed
8.994 km/s
True Right ascension
13h 56m 56s
True Declination
0° 00' 00"
Sunlit
Object was in daylight at epoch
Visualization orbit readout
Latitude
Unknown
Longitude
Unknown
Altitude
Unknown
Speed
Unknown
Apparent Right ascension
Unknown
Apparent Declination
Unknown
Sunlit
N/A
Visualization observer readout
Local Sidereal Time
21:29:29
Azimuth
Unknown
Elevation
Unknown
Doppler factor
Unknown
Orbital elements
Apogee altitude
23,866.151 km
Perigee altitude
293.251 km
Semi-major axis
18,457.838 km
Eccentricity
0.63856
Inclination
3.1054°
RAAN
208.9551°
Arg. of periapsis
309.868°
True anomaly
50.2235°
Mean anomaly
9.4655°
Eccentric anomaly
24.82836°
Mean motion
0.86551 °/min
Orbital period
415.94 mins
BSTAR
0.0057046
Loading maneuver chart data...
Computing Atmospheric mass density...
Loading historical data...
Loading historical data...
Loading historical data...
Loading historical data...
Loading historical data...
Loading historical data...
Loading historical data...
Other satellites on launch #69 in the year 2021 (2021-07-30 UTC)

Documentation

Showing up to 5 results
|